| time (UTC) | temp C | wind direction | speed KPH | gust KPH | rain 1hr cm | rain 24hr cm | rain mn cm | humidity % | barometer mb |
| 20260504215018 | 16 | 52 | 11.3 | 11.3 | 0.00 | 0.00 | 0.00 | 54 | |
| 20260504214517 | 16 | 43 | 11.3 | 11.3 | 0.00 | 0.00 | 0.00 | 54 | |
| 20260504214017 | 16 | 44 | 11.3 | 11.3 | 0.00 | 0.00 | 0.00 | 54 | |
| 20260504213517 | 16 | 49 | 11.3 | 11.3 | 0.00 | 0.00 | 0.00 | 54 | |
| 20260504212019 | 16 | 76 | 6.4 | 6.4 | 0.00 | 0.00 | 0.00 | 54 | |
| 20260504211517 | 16 | 87 | 3.2 | 3.2 | 0.00 | 0.00 | 0.00 | 53 | |
| 20260504210518 | 16 | 87 | 3.2 | 3.2 | 0.00 | 0.00 | 0.00 | 51 | |
| 20260504205517 | 16 | 87 | 3.2 | 3.2 | 0.00 | 0.00 | 0.00 | 52 | |
| 20260504205017 | 16 | 87 | 3.2 | 3.2 | 0.00 | 0.00 | 0.00 | 53 | |
| 20260504204017 | 16 | 87 | 6.4 | 6.4 | 0.00 | 0.00 | 0.00 | 53 | |
| 20260504203517 | 16 | 87 | 6.4 | 6.4 | 0.00 | 0.00 | 0.00 | 51 | |
| 20260504203018 | 16 | 87 | 3.2 | 3.2 | 0.00 | 0.00 | 0.00 | 51 | |
| 20260504202517 | 16 | 87 | 3.2 | 3.2 | 0.00 | 0.00 | 0.00 | 52 | |
| 20260504202019 | 16 | 87 | 3.2 | 3.2 | 0.00 | 0.00 | 0.00 | 51 | |
| 20260504201518 | 16 | 87 | 3.2 | 3.2 | 0.00 | 0.00 | 0.00 | 52 | |
| 20260504200518 | 16 | 87 | 6.4 | 6.4 | 0.00 | 0.00 | 0.00 | 51 | |
| 20260504200017 | 16 | 87 | 3.2 | 3.2 | 0.00 | 0.00 | 0.00 | 53 | |
| 20260504195018 | 16 | 87 | 6.4 | 6.4 | 0.00 | 0.00 | 0.00 | 52 | |
| 20260504193518 | 16 | 87 | 3.2 | 3.2 | 0.00 | 0.00 | 0.00 | 51 | |
| 20260504193017 | 16 | 87 | 6.4 | 6.4 | 0.00 | 0.00 | 0.00 | 49 | |
| 20260504192517 | 16 | 277 | 0.0 | 6.4 | 0.00 | 0.00 | 0.00 | 48 | |
| 20260504192021 | 16 | 273 | 3.2 | 3.2 | 0.00 | 0.00 | 0.00 | 44 | |
| 20260504191017 | 16 | 273 | 0.0 | 0.0 | 0.00 | 0.00 | 0.00 | 43 | |
| 20260504185517 | 16 | 273 | 0.0 | 0.0 | 0.00 | 0.00 | 0.00 | 44 | |
| 20260504185018 | 16 | 273 | 0.0 | 0.0 | 0.00 | 0.00 | 0.00 | 45 | |
| 20260504184518 | 16 | 273 | 0.0 | 0.0 | 0.00 | 0.00 | 0.00 | 47 | |
| 20260504184017 | 16 | 273 | 0.0 | 0.0 | 0.00 | 0.00 | 0.00 | 49 | |
| 20260504183517 | 16 | 273 | 0.0 | 0.0 | 0.00 | 0.00 | 0.00 | 50 | |
| 20260504183017 | 16 | 273 | 0.0 | 0.0 | 0.00 | 0.00 | 0.00 | 47 | |
| 20260504182517 | 16 | 273 | 0.0 | 0.0 | 0.00 | 0.00 | 0.00 | 48 | |
| 20260504182022 | 16 | 273 | 0.0 | 0.0 | 0.00 | 0.00 | 0.00 | 49 | |
| 20260504181018 | 16 | 273 | 0.0 | 0.0 | 0.00 | 0.00 | 0.00 | 51 | |
| 20260504180522 | 16 | 273 | 0.0 | 0.0 | 0.00 | 0.00 | 0.00 | 50 | |
| 20260504180018 | 17 | 273 | 0.0 | 0.0 | 0.00 | 0.00 | 0.00 | 48 | |
| 20260504175517 | 17 | 273 | 3.2 | 3.2 | 0.00 | 0.00 | 0.00 | 47 | |
| 20260504175017 | 17 | 273 | 0.0 | 3.2 | 0.00 | 0.00 | 0.00 | 49 | |
| 20260504174518 | 17 | 273 | 0.0 | 0.0 | 0.00 | 0.00 | 0.00 | 51 | |
| 20260504174017 | 16 | 273 | 0.0 | 3.2 | 0.00 | 0.00 | 0.00 | 53 | |
| 20260504173518 | 17 | 273 | 0.0 | 0.0 | 0.00 | 0.00 | 0.00 | 53 | |
| 20260504170518 | 16 | 273 | 0.0 | 0.0 | 0.00 | 0.00 | 0.00 | 53 | |
| 20260504151017 | 17 | 256 | 3.2 | 6.4 | 0.00 | 0.00 | 0.00 | 50 | |
| 20260504150517 | 17 | 239 | 11.3 | 11.3 | 0.00 | 0.00 | 0.00 | 50 | |
| 20260504141017 | 17 | 213 | 3.2 | 6.4 | 0.00 | 0.00 | 0.00 | 50 | |
| 20260504140518 | 17 | 251 | 6.4 | 6.4 | 0.00 | 0.00 | 0.00 | 50 | |
| 20260504130518 | 17 | 192 | 3.2 | 3.2 | 0.00 | 0.00 | 0.00 | 50 | |
| 20260504110517 | 17 | 236 | 0.0 | 3.2 | 0.00 | 0.00 | 0.00 | 55 | |
| 20260504100518 | 16 | 119 | 0.0 | 3.2 | 0.00 | 0.00 | 0.00 | 58 | |
| 20260504081517 | 12 | 183 | 0.0 | 3.2 | 0.00 | 0.00 | 0.00 | 69 | |
| 20260504081018 | 11 | 183 | 6.4 | 6.4 | 0.00 | 0.00 | 0.00 | 68 | |
| 20260504050518 | 10 | 85 | 20.9 | 25.7 | 0.00 | 0.00 | 0.00 | 56 | |
| 20260504050018 | 10 | 84 | 20.9 | 25.7 | 0.00 | 0.00 | 0.00 | 57 | |
| 20260504045517 | 10 | 81 | 20.9 | 25.7 | 0.00 | 0.00 | 0.00 | 57 | |
| 20260504045017 | 10 | 76 | 25.7 | 25.7 | 0.00 | 0.00 | 0.00 | 57 | |
| 20260504044517 | 10 | 75 | 25.7 | 29.0 | 0.00 | 0.00 | 0.00 | 56 | |
| 20260504044018 | 10 | 75 | 25.7 | 25.7 | 0.00 | 0.00 | 0.00 | 56 | |
| 20260504043518 | 10 | 76 | 20.9 | 25.7 | 0.00 | 0.00 | 0.00 | 56 | |
| 20260504043017 | 10 | 76 | 25.7 | 29.0 | 0.00 | 0.00 | 0.00 | 56 | |
| 20260504042517 | 10 | 76 | 25.7 | 25.7 | 0.00 | 0.00 | 0.00 | 56 | |
| 20260504041518 | 10 | 78 | 25.7 | 25.7 | 0.00 | 0.00 | 0.00 | 55 | |
| 20260504041017 | 10 | 80 | 20.9 | 25.7 | 0.00 | 0.00 | 0.00 | 56 | |
| 20260504040517 | 10 | 80 | 20.9 | 25.7 | 0.00 | 0.00 | 0.00 | 55 | |
| 20260504040018 | 10 | 78 | 20.9 | 25.7 | 0.00 | 0.00 | 0.00 | 55 | |
| 20260504035516 | 10 | 76 | 20.9 | 25.7 | 0.00 | 0.00 | 0.00 | 55 | |
| 20260504035018 | 10 | 76 | 20.9 | 20.9 | 0.00 | 0.00 | 0.00 | 55 | |
| 20260504034518 | 10 | 79 | 20.9 | 20.9 | 0.00 | 0.00 | 0.00 | 55 | |
| 20260504034017 | 10 | 82 | 20.9 | 25.7 | 0.00 | 0.00 | 0.00 | 55 | |
| 20260504033518 | 10 | 82 | 20.9 | 20.9 | 0.00 | 0.00 | 0.00 | 55 | |
| 20260504033017 | 10 | 81 | 20.9 | 20.9 | 0.00 | 0.00 | 0.00 | 55 | |
| 20260504032517 | 10 | 81 | 20.9 | 25.7 | 0.00 | 0.00 | 0.00 | 55 | |
| 20260504032019 | 10 | 80 | 20.9 | 25.7 | 0.00 | 0.00 | 0.00 | 55 | |
| 20260504031517 | 10 | 85 | 20.9 | 25.7 | 0.00 | 0.00 | 0.00 | 55 | |
| 20260504031017 | 10 | 86 | 25.7 | 25.7 | 0.00 | 0.00 | 0.00 | 55 | |
| 20260504030517 | 10 | 88 | 25.7 | 25.7 | 0.00 | 0.00 | 0.00 | 55 | |
| 20260504030017 | 10 | 88 | 25.7 | 29.0 | 0.00 | 0.00 | 0.00 | 55 | |
| 20260504025517 | 10 | 88 | 25.7 | 29.0 | 0.00 | 0.00 | 0.00 | 54 | |
| 20260504025018 | 10 | 93 | 25.7 | 25.7 | 0.00 | 0.00 | 0.00 | 54 | |
| 20260504024517 | 10 | 91 | 20.9 | 25.7 | 0.00 | 0.00 | 0.00 | 54 | |
| 20260504024017 | 10 | 90 | 25.7 | 29.0 | 0.00 | 0.00 | 0.00 | 54 | |
| 20260504023517 | 10 | 94 | 25.7 | 29.0 | 0.00 | 0.00 | 0.00 | 54 | |
| 20260504023018 | 10 | 96 | 29.0 | 29.0 | 0.00 | 0.00 | 0.00 | 53 | |
| 20260504022516 | 10 | 96 | 25.7 | 29.0 | 0.00 | 0.00 | 0.00 | 53 | |
| 20260504022021 | 10 | 97 | 25.7 | 29.0 | 0.00 | 0.00 | 0.00 | 53 | |
| 20260504021518 | 10 | 96 | 25.7 | 29.0 | 0.00 | 0.00 | 0.00 | 53 | |
| 20260504021018 | 10 | 98 | 25.7 | 29.0 | 0.00 | 0.00 | 0.00 | 53 | |
| 20260504020517 | 10 | 96 | 25.7 | 29.0 | 0.00 | 0.00 | 0.00 | 53 | |
| 20260504020017 | 11 | 95 | 29.0 | 29.0 | 0.00 | 0.00 | 0.00 | 53 | |
| 20260504015518 | 10 | 98 | 25.7 | 25.7 | 0.00 | 0.00 | 0.00 | 53 | |
| 20260504015018 | 11 | 95 | 25.7 | 29.0 | 0.00 | 0.00 | 0.00 | 53 | |
| 20260504014518 | 11 | 93 | 25.7 | 29.0 | 0.00 | 0.00 | 0.00 | 53 | |
| 20260504014017 | 10 | 91 | 25.7 | 25.7 | 0.00 | 0.00 | 0.00 | 53 | |
| 20260504013517 | 11 | 92 | 25.7 | 29.0 | 0.00 | 0.00 | 0.00 | 53 | |
| 20260504013018 | 11 | 95 | 25.7 | 29.0 | 0.00 | 0.00 | 0.00 | 53 | |
| 20260504012517 | 11 | 96 | 29.0 | 32.2 | 0.00 | 0.00 | 0.00 | 53 | |
| 20260504012019 | 11 | 97 | 29.0 | 32.2 | 0.00 | 0.00 | 0.00 | 53 | |
| 20260504011517 | 11 | 90 | 29.0 | 35.4 | 0.00 | 0.00 | 0.00 | 53 | |
| 20260504011018 | 11 | 90 | 25.7 | 32.2 | 0.00 | 0.00 | 0.00 | 53 | |
| 20260504010518 | 11 | 94 | 32.2 | 32.2 | 0.00 | 0.00 | 0.00 | 53 | |
| 20260504010017 | 11 | 93 | 29.0 | 35.4 | 0.00 | 0.00 | 0.00 | 53 | |
| 20260504005517 | 11 | 94 | 29.0 | 32.2 | 0.00 | 0.00 | 0.00 | 53 | |
| 20260504005017 | 11 | 95 | 29.0 | 32.2 | 0.00 | 0.00 | 0.00 | 53 | |
| 20260504004511 | 11 | 96 | 25.7 | 29.0 | 0.00 | 0.00 | 0.00 | 53 | |
| 20260504004017 | 11 | 93 | 32.2 | 35.4 | 0.00 | 0.00 | 0.00 | 52 | |
| 20260504003511 | 11 | 96 | 32.2 | 32.2 | 0.00 | 0.00 | 0.00 | 53 | |
| 20260504003011 | 11 | 93 | 29.0 | 32.2 | 0.00 | 0.00 | 0.00 | 53 | |
| 20260504002517 | 11 | 91 | 29.0 | 35.4 | 0.00 | 0.00 | 0.00 | 53 | |
| 20260504002020 | 11 | 96 | 32.2 | 35.4 | 0.00 | 0.00 | 0.00 | 54 | |
| 20260504001518 | 11 | 92 | 29.0 | 35.4 | 0.00 | 0.00 | 0.00 | 54 | |
| 20260504001018 | 11 | 93 | 29.0 | 32.2 | 0.00 | 0.00 | 0.00 | 54 | |
| 20260504000517 | 11 | 93 | 32.2 | 35.4 | 0.00 | 0.00 | 0.00 | 54 | |
| 20260504000018 | 11 | 97 | 32.2 | 35.4 | 0.00 | 0.00 | 0.00 | 54 | |
| 20260503235511 | 12 | 94 | 32.2 | 35.4 | 0.00 | 0.00 | 0.00 | 54 | |
| 20260503235017 | 12 | 97 | 32.2 | 35.4 | 0.00 | 0.00 | 0.00 | 54 | |
| 20260503234518 | 11 | 94 | 32.2 | 35.4 | 0.00 | 0.00 | 0.00 | 54 | |
| 20260503234018 | 11 | 94 | 29.0 | 32.2 | 0.00 | 0.00 | 0.00 | 55 | |
| 20260503233518 | 11 | 92 | 29.0 | 32.2 | 0.00 | 0.00 | 0.00 | 54 | |
| 20260503232517 | 12 | 94 | 32.2 | 35.4 | 0.00 | 0.00 | 0.00 | 54 | |
| 20260503232021 | 12 | 94 | 29.0 | 32.2 | 0.00 | 0.00 | 0.00 | 53 | |
| 20260503231517 | 12 | 94 | 29.0 | 35.4 | 0.00 | 0.00 | 0.00 | 53 | |
| 20260503231017 | 12 | 90 | 29.0 | 32.2 | 0.00 | 0.00 | 0.00 | 52 | |
| 20260503230518 | 12 | 95 | 32.2 | 32.2 | 0.00 | 0.00 | 0.00 | 52 | |
| 20260503230018 | 12 | 91 | 32.2 | 35.4 | 0.00 | 0.00 | 0.00 | 51 | |
| 20260503225517 | 12 | 98 | 29.0 | 32.2 | 0.00 | 0.00 | 0.00 | 51 | |
| 20260503225017 | 12 | 93 | 29.0 | 32.2 | 0.00 | 0.00 | 0.00 | 51 | |
| 20260503224518 | 12 | 96 | 29.0 | 32.2 | 0.00 | 0.00 | 0.00 | 50 | |
| 20260503224018 | 12 | 98 | 29.0 | 29.0 | 0.00 | 0.00 | 0.00 | 49 | |
| 20260503223518 | 12 | 99 | 29.0 | 32.2 | 0.00 | 0.00 | 0.00 | 49 | |
| 20260503223017 | 12 | 101 | 29.0 | 32.2 | 0.00 | 0.00 | 0.00 | 49 | |
| 20260503222517 | 12 | 98 | 25.7 | 29.0 | 0.00 | 0.00 | 0.00 | 49 | |
| 20260503222019 | 12 | 102 | 29.0 | 29.0 | 0.00 | 0.00 | 0.00 | 49 | |
| 20260503221518 | 12 | 99 | 25.7 | 29.0 | 0.00 | 0.00 | 0.00 | 49 | |
| 20260503221018 | 12 | 102 | 25.7 | 32.2 | 0.00 | 0.00 | 0.00 | 49 | |
| 20260503220518 | 12 | 100 | 29.0 | 29.0 | 0.00 | 0.00 | 0.00 | 48 | |
| 20260503220019 | 12 | 102 | 25.7 | 29.0 | 0.00 | 0.00 | 0.00 | 48 | |
| 20260503215517 | 12 | 101 | 29.0 | 29.0 | 0.00 | 0.00 | 0.00 | 48 |